[[{"header":{"parameterUnit":"m.s-1","parameterCategory":2,"la1":30.2992,"la2":30.254,"lo1":-89.0895,"lo2":-89.0443,"dy":0.0025,"dx":0.0025,"nx":19,"ny":19,"refTime":"2026-03-07T03:00:00:Z","depth":"0","parameterNumber":2,"parameterNumberName":"U-component_of_CURRENTS"},"data":[0,0,0,0.1261,0.1262,0.1278,0.1277,0.1229,0.1228,0,0,0,0,0,0,0,0,0,0,0,0.1253,0.1253,0.1261,0.1262,0.1278,0.1277,0.1229,0.1228,0,0,0,0,0,0,0,0,0,0,0,0.1253,0.1253,0.1254,0.1263,0.1278,0.1277,0.1229,0.123,0,0,0,0,0,0,0,0,0,0,0.1222,0.123,0.1253,0.1254,0.1263,0.1278,0.1277,0.1231,0.123,0.1208,0,0.1224,0,0.1233,0.1225,0.1225,0,0,0,0.1245,0.1231,0.1239,0.1254,0.1263,0.1278,0.1266,0.1231,0.123,0.1207,0.1223,0.1222,0.1232,0.1225,0.1225,0.1265,0.1266,0,0,0.1244,0.1246,0.124,0.124,0.1283,0.1265,0.1266,0.1231,0.1232,0.1223,0.1221,0.1232,0.1225,0.1224,0.1264,0.1265,0,0,0,0.1253,0.1245,0.1255,0.1241,0.1254,0.1266,0.1267,0.1234,0.1239,0.1221,0.1231,0.1224,0.1224,0.1263,0.1265,0.1316,0,0,0,0.1252,0.1252,0.1255,0.1255,0.1255,0.1254,0.1271,0.1241,0.1238,0.1231,0.1224,0.1223,0.1262,0.1264,0.1312,0.1318,0,0,0,0.1249,0.1252,0.126,0.1255,0.1271,0.1255,0.1258,0.1241,0.1245,0.1225,0.1223,0.1262,0.1264,0.131,0.1314,0.138,0,0,0,0.1241,0.1262,0.126,0.1289,0.1271,0.1308,0.1258,0.1276,0.1268,0.1224,0.1263,0.1264,0.1309,0.1311,0.1377,0.142,0.1438,0,0,0.1261,0.1264,0.1283,0.1282,0.1319,0.1303,0.1341,0.1309,0.1287,0.1264,0.1265,0.1314,0.1314,0.1379,0.1529,0.1544,0,0,0,0.1285,0.1294,0.1309,0.133,0.1354,0.1365,0.1354,0.1356,0.1354,0.1295,0.1338,0.1336,0.1376,0.1396,0.1409,0.1444,0.1273,0.1273,0.1273,0.1286,0.1306,0.1331,0.1356,0.1382,0.1412,0.143,0.1429,0.1402,0.1426,0.1397,0.1504,0.1528,0.1537,0.1574,0.1427,0.1428,0.1428,0.1428,0.1304,0.1305,0.1337,0.1365,0.1391,0.1421,0.1469,0.1477,0.1523,0.1476,0.1513,0.1472,0.1554,0.1588,0.1432,0.1431,0.143,0.143,0.143,0.1285,0.1283,0.1307,0.1333,0.1363,0.1407,0.1465,0.1505,0.1555,0.1594,0.1631,0.1631,0.1644,0.1624,0.1624,0.1624,0.1625,0.1625,0.1625,0.1238,0.1261,0.1257,0.1289,0.1297,0.135,0.1454,0.1531,0.1651,0.1689,0.169,0.1699,0.1564,0.1537,0.163,0.1629,0.1629,0.1628,0.1628,0.1192,0.1192,0.1188,0.1191,0.1228,0.1264,0.1398,0.1596,0.1704,0.1781,0.1857,0.1754,0.1742,0.1732,0.171,0.1843,0.1843,0.1843,0.1843,0.1139,0.1146,0.1117,0.1107,0.1138,0.1216,0.1355,0.1568,0.182,0.1934,0.1966,0.1935,0.1924,0.192,0.1906,0.1886,0.2061,0.2061,0.2061,0.1099,0.1098,0.1057,0.1054,0.1078,0.1178,0.1285,0.1494,0.1883,0.2071,0.2013,0.2003,0.1953,0.1934,0.1918,0.1895,0.1858,0,0]},{"header":{"parameterUnit":"m.s-1","parameterCategory":2,"la1":30.2992,"la2":30.254,"lo1":-89.0895,"lo2":-89.0443,"dy":0.0025,"dx":0.0025,"nx":19,"ny":19,"refTime":"2026-03-07T03:00:00:Z","depth":"0","parameterNumber":3,"parameterNumberName":"V-component_of_CURRENTS"},"data":[0,0,0,-0.01,-0.0101,-0.0172,-0.0172,-0.0236,-0.0237,0,0,0,0,0,0,0,0,0,0,0,-0.0071,-0.0071,-0.01,-0.0101,-0.0172,-0.0172,-0.0236,-0.0237,0,0,0,0,0,0,0,0,0,0,0,-0.0071,-0.0071,-0.0072,-0.0101,-0.0172,-0.0172,-0.0236,-0.0191,0,0,0,0,0,0,0,0,0,0,-0.0126,-0.0102,-0.0071,-0.0072,-0.0102,-0.0172,-0.0172,-0.0189,-0.0194,-0.0194,0,-0.0199,0,-0.0217,-0.024,-0.024,0,0,0,-0.0109,-0.0098,-0.0115,-0.0072,-0.0102,-0.0172,-0.0142,-0.0192,-0.0197,-0.02,-0.02,-0.0203,-0.0218,-0.024,-0.024,-0.025,-0.025,0,0,-0.0105,-0.0088,-0.0112,-0.0118,-0.0112,-0.014,-0.0144,-0.0196,-0.0197,-0.02,-0.0204,-0.0219,-0.024,-0.0241,-0.025,-0.025,0,0,0,-0.0088,-0.0085,-0.0102,-0.0115,-0.0129,-0.0142,-0.0147,-0.0195,-0.02,-0.0205,-0.022,-0.024,-0.0241,-0.0251,-0.025,-0.0169,0,0,0,-0.0086,-0.0075,-0.01,-0.0091,-0.0128,-0.0167,-0.0145,-0.0197,-0.0203,-0.022,-0.024,-0.0241,-0.0251,-0.025,-0.0172,-0.009,0,0,0,-0.0069,-0.0073,-0.0079,-0.009,-0.0118,-0.0167,-0.0176,-0.0199,-0.0212,-0.024,-0.0242,-0.0251,-0.0251,-0.0175,-0.0096,-0.0016,0,0,0,-0.0054,-0.0054,-0.0078,-0.0081,-0.0117,-0.0141,-0.0176,-0.0203,-0.0225,-0.0241,-0.0251,-0.025,-0.0175,-0.01,-0.002,0.0045,0.007,0,0,-0.0044,-0.0052,-0.0054,-0.0077,-0.0083,-0.0132,-0.0129,-0.0175,-0.0216,-0.0234,-0.0235,-0.0171,-0.0097,-0.0016,0.0075,0.01,0,0,0,-0.0044,-0.004,-0.0048,-0.0057,-0.0085,-0.0079,-0.0139,-0.0151,-0.0171,-0.0225,-0.0183,-0.0138,-0.009,-0.0061,-0.0042,-0.0163,-0.0248,-0.0248,-0.0248,-0.0003,-0.0016,-0.0005,-0.0017,-0.0024,-0.005,-0.0041,-0.0067,-0.0133,-0.0127,-0.0083,0.0024,0.0053,0.0069,-0.0058,-0.0121,-0.0121,-0.0121,-0.0121,0.0034,0.0051,0.0047,0.0056,0.0061,0.0069,0.0064,0.0036,0.007,-0.0014,0.0027,0.0009,0.0096,-0.0048,-0.0116,-0.0116,-0.0117,-0.0117,-0.0118,0.0076,0.0086,0.0092,0.0124,0.0168,0.0163,0.026,0.0228,0.0178,0.0218,0.0244,0.0243,0.013,0.0228,0.0229,0.023,0.023,0.0231,0.0231,0.012,0.0128,0.0167,0.0198,0.0244,0.0323,0.0382,0.0427,0.0433,0.0378,0.0377,0.0156,0.0132,0.0134,0.0242,0.024,0.0239,0.0238,0.0237,0.0176,0.0181,0.0241,0.0287,0.0399,0.0528,0.0571,0.0676,0.0693,0.0711,0.0405,0.0455,0.045,0.0433,0.0442,0.0625,0.0625,0.0625,0.0625,0.0223,0.0224,0.0317,0.0407,0.0534,0.0628,0.082,0.0867,0.0716,0.0596,0.0493,0.0383,0.0372,0.0354,0.0339,0.0341,0.0494,0.0493,0.0493,0.0273,0.0289,0.037,0.0446,0.0592,0.0754,0.0926,0.0985,0.0707,0.047,0.0315,0.0321,0.0132,0.0126,0.0068,0.0057,0.005,0,0]}],[{"header":{"parameterUnit":"m.s-1","parameterCategory":2,"la1":30.2992,"la2":30.254,"lo1":-89.0895,"lo2":-89.0443,"dy":0.0025,"dx":0.0025,"nx":19,"ny":19,"refTime":"2026-03-07T03:00:00:Z","depth":"2","parameterNumber":2,"parameterNumberName":"U-component_of_CURRENTS"},"data":[0,0,0,0.142,0.1421,0.1453,0.1453,0.1426,0.1426,0,0,0,0,0,0,0,0,0,0,0,0.1406,0.1406,0.142,0.1421,0.1453,0.1453,0.1426,0.1426,0,0,0,0,0,0,0,0,0,0,0,0.1405,0.1406,0.1407,0.1421,0.1453,0.1453,0.1426,0.1415,0,0,0,0,0,0,0,0,0,0,0.139,0.1392,0.1406,0.1407,0.1422,0.1453,0.1453,0.1414,0.1415,0.1398,0,0.1418,0,0.143,0.1425,0.1424,0,0,0,0.1402,0.1392,0.1406,0.1407,0.1422,0.1453,0.1433,0.1415,0.1416,0.1399,0.1418,0.1418,0.143,0.1424,0.1424,0.1479,0.148,0,0,0.14,0.14,0.1406,0.1407,0.1449,0.1433,0.1435,0.1416,0.142,0.1418,0.1417,0.1429,0.1424,0.1424,0.1478,0.1479,0,0,0,0.1408,0.1399,0.1415,0.1408,0.1424,0.1434,0.1436,0.142,0.1428,0.1417,0.1429,0.1424,0.1424,0.1478,0.1479,0.1518,0,0,0,0.1406,0.1405,0.1414,0.1412,0.1426,0.1433,0.1441,0.1429,0.1428,0.1429,0.1424,0.1424,0.1477,0.1478,0.1515,0.153,0,0,0,0.1401,0.1404,0.1415,0.1413,0.1437,0.1434,0.1439,0.1429,0.1436,0.1424,0.1424,0.1476,0.1478,0.1513,0.1526,0.1595,0,0,0,0.1388,0.1412,0.1415,0.1447,0.1437,0.1478,0.144,0.1461,0.1459,0.1424,0.1477,0.1479,0.1512,0.1523,0.1591,0.1561,0.1573,0,0,0.1408,0.1414,0.1434,0.1438,0.1479,0.1471,0.1512,0.1492,0.148,0.1472,0.1474,0.1516,0.1526,0.1594,0.1668,0.1677,0,0,0,0.1434,0.1445,0.1461,0.1486,0.1515,0.1535,0.153,0.1538,0.1548,0.1492,0.1543,0.1548,0.159,0.1566,0.1574,0.1487,0.1487,0.1487,0.1487,0.1431,0.1453,0.148,0.1511,0.1541,0.158,0.1606,0.1616,0.1591,0.1619,0.16,0.1706,0.1681,0.1686,0.1625,0.1625,0.1625,0.1625,0.1626,0.1447,0.145,0.1485,0.1517,0.1551,0.1587,0.165,0.1662,0.1721,0.1674,0.1713,0.1633,0.1697,0.1629,0.1628,0.1628,0.1628,0.1627,0.1627,0.1425,0.1425,0.1451,0.1483,0.1523,0.1578,0.165,0.1698,0.1754,0.1795,0.1786,0.1784,0.1726,0.1821,0.1821,0.1822,0.1822,0.1822,0.1823,0.1375,0.1401,0.1402,0.1442,0.1457,0.1523,0.1646,0.1726,0.1818,0.1837,0.1837,0.1772,0.1766,0.1739,0.1829,0.1827,0.1827,0.1826,0.1826,0.1333,0.1333,0.1334,0.1342,0.1401,0.1439,0.158,0.1746,0.1855,0.1902,0.1873,0.187,0.1859,0.1852,0.1828,0.1936,0.1936,0.1936,0.1936,0.1282,0.129,0.1269,0.1274,0.1322,0.1399,0.1493,0.1614,0.1767,0.1801,0.1806,0.1731,0.1731,0.1708,0.1704,0.1675,0.1743,0.1742,0.1741,0.1245,0.1242,0.1212,0.1227,0.1274,0.1363,0.1383,0.14,0.1559,0.1729,0.1724,0.1932,0.1834,0.1828,0.1799,0.179,0.1746,0,0]},{"header":{"parameterUnit":"m.s-1","parameterCategory":2,"la1":30.2992,"la2":30.254,"lo1":-89.0895,"lo2":-89.0443,"dy":0.0025,"dx":0.0025,"nx":19,"ny":19,"refTime":"2026-03-07T03:00:00:Z","depth":"2","parameterNumber":3,"parameterNumberName":"V-component_of_CURRENTS"},"data":[0,0,0,-0.0199,-0.02,-0.0256,-0.0257,-0.0314,-0.0314,0,0,0,0,0,0,0,0,0,0,0,-0.0175,-0.0175,-0.0199,-0.02,-0.0256,-0.0257,-0.0314,-0.0314,0,0,0,0,0,0,0,0,0,0,0,-0.0175,-0.0175,-0.0175,-0.02,-0.0256,-0.0257,-0.0313,-0.0276,0,0,0,0,0,0,0,0,0,0,-0.0224,-0.0204,-0.0175,-0.0175,-0.02,-0.0256,-0.0257,-0.0275,-0.0279,-0.0281,0,-0.0283,0,-0.0298,-0.0317,-0.0317,0,0,0,-0.0207,-0.0201,-0.0213,-0.0175,-0.0201,-0.0256,-0.0233,-0.0277,-0.0281,-0.0286,-0.0284,-0.0286,-0.0299,-0.0317,-0.0317,-0.0329,-0.0328,0,0,-0.0204,-0.0191,-0.021,-0.0215,-0.0206,-0.0231,-0.0235,-0.028,-0.0282,-0.0284,-0.0288,-0.03,-0.0317,-0.0318,-0.0329,-0.0329,0,0,0,-0.019,-0.0188,-0.02,-0.0213,-0.0223,-0.0233,-0.0237,-0.028,-0.0283,-0.0289,-0.03,-0.0317,-0.0318,-0.0329,-0.0329,-0.0257,0,0,0,-0.0188,-0.018,-0.0199,-0.0192,-0.0222,-0.0255,-0.0235,-0.028,-0.0285,-0.03,-0.0317,-0.0318,-0.0329,-0.0329,-0.0259,-0.0196,0,0,0,-0.0174,-0.0179,-0.0182,-0.0191,-0.0213,-0.0255,-0.0261,-0.0281,-0.0292,-0.0317,-0.0318,-0.0329,-0.0329,-0.0261,-0.0201,-0.0137,0,0,0,-0.0164,-0.0155,-0.0181,-0.0174,-0.0212,-0.0225,-0.0261,-0.0282,-0.03,-0.0318,-0.0329,-0.0329,-0.0262,-0.0204,-0.0141,-0.016,-0.0145,0,0,-0.0144,-0.0152,-0.0147,-0.0172,-0.0168,-0.0218,-0.021,-0.0254,-0.0295,-0.0315,-0.0316,-0.0258,-0.0201,-0.0138,-0.0135,-0.0121,0,0,0,-0.0135,-0.0128,-0.0133,-0.0138,-0.016,-0.0162,-0.0214,-0.0232,-0.0258,-0.0303,-0.027,-0.0235,-0.0198,-0.0218,-0.0207,-0.0327,-0.0327,-0.0327,-0.0327,-0.0088,-0.0098,-0.0082,-0.0092,-0.0099,-0.0129,-0.0129,-0.0162,-0.0218,-0.022,-0.0187,-0.0099,-0.0122,-0.0114,-0.0216,-0.0216,-0.0216,-0.0215,-0.0215,-0.0041,-0.0024,-0.0032,-0.0018,-0.0023,-0.0017,-0.004,-0.0071,-0.0058,-0.013,-0.0098,-0.0154,-0.0097,-0.021,-0.0211,-0.0212,-0.0212,-0.0213,-0.0213,0.0001,0.001,0.0018,0.0046,0.0075,0.006,0.0116,0.0081,0.0032,0.006,0.0031,0.0028,-0.0026,0.007,0.007,0.0071,0.0071,0.0072,0.0072,0.0043,0.0052,0.0085,0.011,0.0141,0.0189,0.0212,0.0225,0.0194,0.0134,0.0133,-0.0002,-0.0012,-0.001,0.0081,0.0079,0.0078,0.0077,0.0076,0.0099,0.01,0.0147,0.018,0.0255,0.0333,0.0346,0.036,0.036,0.0339,0.0169,0.0164,0.0149,0.0137,0.0142,0.0267,0.0267,0.0267,0.0267,0.0139,0.014,0.0205,0.0264,0.0352,0.0401,0.0497,0.0473,0.0378,0.0302,0.0301,0.0215,0.0206,0.0189,0.0176,0.0179,0.0314,0.0314,0.0314,0.018,0.0187,0.0243,0.0291,0.0389,0.0485,0.0559,0.0551,0.0404,0.0318,0.0327,0.0267,0.0129,0.012,0.0079,0.0065,0.0064,0,0]}],[{"header":{"parameterUnit":"m.s-1","parameterCategory":2,"la1":30.2992,"la2":30.254,"lo1":-89.0895,"lo2":-89.0443,"dy":0.0025,"dx":0.0025,"nx":19,"ny":19,"refTime":"2026-03-07T03:00:00:Z","depth":"4","parameterNumber":2,"parameterNumberName":"U-component_of_CURRENTS"},"data":[0,0,0,0.0951,0.0953,0.1038,0.1038,0.1123,0.1124,0,0,0,0,0,0,0,0,0,0,0,0.0929,0.093,0.0951,0.0953,0.1038,0.1038,0.1123,0.1124,0,0,0,0,0,0,0,0,0,0,0,0.0929,0.093,0.0931,0.0954,0.1038,0.1038,0.1123,0.1065,0,0,0,0,0,0,0,0,0,0,0.0986,0.0965,0.093,0.0931,0.0954,0.1037,0.1038,0.1063,0.1069,0.1079,0,0.11,0,0.1111,0.1129,0.1129,0,0,0,0.0954,0.096,0.0986,0.0931,0.0955,0.1037,0.1,0.1066,0.1073,0.1087,0.1102,0.1105,0.1113,0.113,0.113,0.1223,0.1223,0,0,0.0949,0.094,0.0981,0.099,0.0988,0.0997,0.1002,0.1071,0.108,0.1102,0.1107,0.1114,0.113,0.1131,0.1222,0.1223,0,0,0,0.0936,0.0937,0.0961,0.0987,0.1002,0.0999,0.1006,0.1078,0.1087,0.1108,0.1115,0.1131,0.1132,0.1222,0.1222,0.1255,0,0,0,0.0933,0.0929,0.0959,0.0954,0.1001,0.1043,0.1011,0.1083,0.109,0.1115,0.1131,0.1132,0.1221,0.1222,0.1253,0.1253,0,0,0,0.0923,0.0927,0.0942,0.0953,0.0989,0.1042,0.1056,0.1085,0.1094,0.113,0.1133,0.1221,0.1222,0.1251,0.1251,0.1284,0,0,0,0.0904,0.0918,0.0942,0.0965,0.0989,0.104,0.1055,0.1105,0.1138,0.1131,0.1221,0.1222,0.1251,0.125,0.1282,0.1139,0,0,0,0.0904,0.0918,0.0931,0.0954,0.0995,0.1027,0.1085,0.114,0.1156,0.1196,0.1199,0.1254,0.1251,0.1284,0.1202,0,0,0,0,0.092,0.0931,0.0948,0.0983,0.1025,0.1082,0.1132,0.1164,0.1227,0.118,0.1266,0.1263,0.1283,0.1195,0.1228,0.1227,0.1227,0.1227,0.1227,0.0893,0.0925,0.0956,0.1006,0.105,0.1129,0.1178,0.1233,0.1249,0.1289,0.1299,0.1357,0.1266,0.1317,0.1317,0.1318,0.1318,0.1318,0.1318,0.0886,0.0903,0.0967,0.1012,0.1086,0.115,0.124,0.1275,0.1349,0.1343,0.1362,0.1246,0.1321,0.1321,0.132,0.132,0.1319,0.1319,0.1319,0.0856,0.0871,0.092,0.1001,0.1089,0.1178,0.1251,0.1319,0.1372,0.1399,0.1319,0.1382,0.1368,0.1423,0.1423,0.1424,0.1424,0.1424,0.1424,0.0803,0.0851,0.0901,0.0991,0.1055,0.1144,0.1265,0.1311,0.1381,0.1335,0.1417,0.1392,0.1389,0.1374,0.1427,0.1426,0.1426,0.1425,0.1425,0.0759,0.0797,0.086,0.092,0.1038,0.1081,0.1207,0.1263,0.1304,0.1303,0.1301,0.1307,0.128,0.128,0.126,0.128,0.1279,0.1277,0,0.0728,0.0749,0.0835,0.0901,0.0957,0.1041,0.1059,0.1133,0.12,0.1156,0.131,0.1306,0.1309,0.1277,0.1274,0.1248,0,0,0,0.071,0.0745,0.0787,0.0863,0.0916,0.0967,0.1058,0.1053,0.1177,0.119,0.1235,0.1246,0.137,0.1434,0.1407,0.1403,0.1378,0,0]},{"header":{"parameterUnit":"m.s-1","parameterCategory":2,"la1":30.2992,"la2":30.254,"lo1":-89.0895,"lo2":-89.0443,"dy":0.0025,"dx":0.0025,"nx":19,"ny":19,"refTime":"2026-03-07T03:00:00:Z","depth":"4","parameterNumber":3,"parameterNumberName":"V-component_of_CURRENTS"},"data":[0,0,0,-0.0088,-0.0087,-0.0085,-0.0085,-0.0084,-0.0084,0,0,0,0,0,0,0,0,0,0,0,-0.0092,-0.0092,-0.0088,-0.0087,-0.0085,-0.0085,-0.0084,-0.0084,0,0,0,0,0,0,0,0,0,0,0,-0.0092,-0.0092,-0.0092,-0.0087,-0.0085,-0.0085,-0.0084,-0.0086,0,0,0,0,0,0,0,0,0,0,-0.0088,-0.0091,-0.0092,-0.0092,-0.0087,-0.0085,-0.0085,-0.0086,-0.0086,-0.0085,0,-0.0087,0,-0.0083,-0.0084,-0.0084,0,0,0,-0.0089,-0.0091,-0.009,-0.0092,-0.0087,-0.0085,-0.0087,-0.0086,-0.0086,-0.0085,-0.0087,-0.0087,-0.0083,-0.0084,-0.0084,-0.0096,-0.0096,0,0,-0.0089,-0.0091,-0.009,-0.009,-0.0089,-0.0087,-0.0087,-0.0086,-0.0087,-0.0087,-0.0086,-0.0083,-0.0084,-0.0084,-0.0096,-0.0096,0,0,0,-0.0088,-0.0091,-0.009,-0.009,-0.0088,-0.0087,-0.0086,-0.0087,-0.0086,-0.0086,-0.0083,-0.0084,-0.0084,-0.0095,-0.0096,-0.008,0,0,0,-0.0088,-0.0091,-0.009,-0.0092,-0.0088,-0.0087,-0.0088,-0.0087,-0.0086,-0.0083,-0.0084,-0.0084,-0.0095,-0.0096,-0.008,-0.0069,0,0,0,-0.0091,-0.0091,-0.0091,-0.0092,-0.009,-0.0087,-0.0086,-0.0087,-0.0084,-0.0084,-0.0084,-0.0095,-0.0096,-0.008,-0.0069,-0.0079,0,0,0,-0.0093,-0.0069,-0.0092,-0.0063,-0.009,-0.0063,-0.0086,-0.0072,-0.0069,-0.0084,-0.0095,-0.0096,-0.008,-0.007,-0.0079,-0.0009,0,0,0,-0.0056,-0.0065,-0.0045,-0.0064,-0.0029,-0.0063,-0.0046,-0.0058,-0.0078,-0.0096,-0.0096,-0.008,-0.0069,-0.0079,-0.0031,0,0,0,0,-0.0028,-0.0017,-0.0008,0.0001,0.0006,-0.0014,-0.0028,-0.0053,-0.0083,-0.0079,-0.0091,-0.0086,-0.0092,-0.0052,-0.0097,-0.0097,-0.0097,-0.0097,-0.0097,0.0018,0.0021,0.0048,0.0046,0.0049,0.0019,-0.0005,-0.005,-0.006,-0.0085,-0.0081,-0.0088,-0.0047,-0.0094,-0.0094,-0.0094,-0.0094,-0.0094,-0.0094,0.0071,0.0083,0.0073,0.0098,0.0067,0.0064,0.0004,-0.0026,-0.0074,-0.0086,-0.0093,-0.0049,-0.0092,-0.0093,-0.0093,-0.0093,-0.0093,-0.0093,-0.0093,0.0097,0.0099,0.0109,0.0118,0.0107,0.0075,0.0053,-0.0002,-0.0056,-0.0069,-0.0036,-0.0083,-0.0075,-0.0073,-0.0073,-0.0073,-0.0073,-0.0073,-0.0073,0.0109,0.012,0.0129,0.0135,0.0134,0.012,0.0076,0.0054,-0.0002,-0.0012,-0.0063,-0.0082,-0.0082,-0.0075,-0.0073,-0.0073,-0.0073,-0.0073,-0.0073,0.0132,0.0126,0.0147,0.0151,0.0154,0.0152,0.0122,0.0106,0.0079,0.0059,0.0009,0.0005,0.0004,0.0001,0.0011,0.0039,0.004,0.0041,0,0.0132,0.0134,0.0151,0.0162,0.0176,0.0166,0.0181,0.0163,0.01,0.0096,0.005,-0.0006,-0.0009,-0.0011,-0.0012,-0.0,0,0,0,0.013,0.0137,0.0147,0.0164,0.0184,0.0189,0.0185,0.0187,0.0107,0.0132,0.0064,0.0058,0.0018,-0.0073,-0.0085,-0.0086,-0.0075,0,0]}]]